STARLINK-35217 (65627 NORAD) Tracking and Keplerian Element Data

This shows tracking and keplerian element data for the satellite.

Feedback or suggestion? Click here.




ElementValue
Catalog65627
NameSTARLINK-35217
Epoch Orbit1555
Epoch Day354.1780774
Epoch Year2025
RAAN316.6797
Inclination53.1606
Eccentricity0.0001202
Argument of Perigee70.6084
Mean Anonmoly289.5047
Mean Motion15.30203638
Decay Rate0.00027477
L11 65627U 25210F 25354.17807740 .00027477 00000+0 93628-3 0 9996
L22 65627 53.1606 316.6797 0001202 70.6084 289.5047 15.30203638 15550



Live tracking and technical data element details for STARLINK-35217 (NORAD 65627). STARLINK-35217 can be tracked NOW for your location showing map with azimuth and elevation plus other details from your city location.







IsCatalogInMostPopularTable: catalog: 65627, numindb: 9
Update: records affected: 1



GetName: 65627 STARLINK-35217

Hit Count: updated at: Tue, 21 Apr 2026 20:37:36 GMT